Location: São Paulo
(23.5507°S, 46.6334°W)
Time: 09:31:55
(UTC-03:00)

Explorer 7 - Pass Details

Date: 21 February 2026
Orbit: 430 x 541 km, 50.2° (Epoch: 11 March)

Event Time Altitude Azimuth Distance (km) Brightness Sun altitude
Rises 08:31:40 0° 210° (SSW) 2,544 9.9 34.2°
Reaches altitude 10° 08:34:07 10° 197° (SSW) 1,637 9.2 34.7°
Maximum altitude 08:37:17 27° 137° (SE) 927 8.8 35.5°
Drops below altitude 10° 08:40:20 10° 78° (ENE) 1,573 10.5 36.2°
Sets 08:42:38 0° 65° (ENE) 2,422 11.0 36.7°
